Date String (YYYY-MM-DD hh:mm:ss) UTC,Instrument flags,Ambient pressure (hPa),Sample flow (lpm),Bypass flow (lpm),Sample temperature (°C),Ambient temperature (°C),ASC tube jacket temperature (°C),LED temperature (°C),Box temperature (°C),Sample RH (%),Span deviation,Mass concentration (μg/m³),Mass concentration (μg/m³),Mass concentration (μg/m³)
DateTimeUTC,F1_M11,P_M11,Q1_M11,Q2_M11,T1_M11,T2_M11,T3_M11,T4_M11,T5_M11,U1_M11,ZSPAN_M11,X0_M11,X2_M11,X1_M11
2022-08-31 21:00:00,,0830.4,5.00,0.00,29.4,26.6,00.0,38.0,31.2,24.9,0000.0,0023.87,0007.31,0005.54
2022-08-31 21:01:00,,0830.4,5.00,0.00,29.4,26.8,00.0,38.0,31.2,24.8,0000.0,0023.19,0007.27,0005.55
2022-08-31 21:02:00,,0830.4,4.99,0.00,29.3,27.1,00.0,38.0,31.0,25.2,0000.0,0022.41,0007.27,0005.55
2022-08-31 21:03:00,,0830.3,5.00,0.00,29.3,27.4,00.0,38.0,31.1,25.2,0000.0,0023.37,0007.23,0005.54
2022-08-31 21:04:00,,0830.3,5.00,0.00,29.4,27.7,00.0,38.0,31.2,25.5,0000.0,0022.26,0007.16,0005.53
2022-08-31 21:05:00,,0830.3,5.01,0.00,29.4,28.0,00.0,38.0,31.3,25.5,0000.0,0022.42,0007.19,0005.55
2022-08-31 21:06:00,,0830.2,4.98,0.00,29.4,28.2,00.0,38.0,31.4,25.3,0000.0,0021.46,0007.23,0005.54
2022-08-31 21:07:00,,0830.2,5.01,0.00,29.5,28.4,00.0,38.0,31.4,25.6,0000.0,0023.23,0007.25,0005.53
2022-08-31 21:08:00,,0830.3,4.99,0.00,29.5,27.8,00.0,38.0,31.4,26.1,0000.0,0023.36,0007.24,0005.54
2022-08-31 21:09:00,,0830.3,5.00,0.00,29.5,26.7,00.0,38.0,31.3,25.0,0000.0,0023.90,0007.21,0005.56
2022-08-31 21:10:00,,0830.1,5.00,0.00,29.4,26.6,00.0,38.0,31.3,24.1,0000.0,0024.00,0007.17,0005.55
2022-08-31 21:11:00,,0830.1,5.00,0.00,29.4,26.9,00.0,38.0,31.2,24.1,0000.0,0024.07,0007.12,0005.53
2022-08-31 21:12:00,,0830.1,4.99,0.00,29.4,27.2,00.0,37.9,31.1,23.5,0000.0,0024.76,0007.08,0005.51
2022-08-31 21:13:00,,0830.1,4.99,0.00,29.4,27.5,00.0,37.9,31.2,24.7,0000.0,0025.42,0007.10,0005.48
2022-08-31 21:14:00,,0830.1,5.00,0.00,29.4,27.8,00.0,38.0,31.2,25.1,0000.0,0024.67,0007.13,0005.47
2022-08-31 21:15:00,,0830.1,5.01,0.00,29.4,28.1,00.0,38.0,31.3,25.3,0000.0,0025.14,0007.21,0005.47
2022-08-31 21:16:00,,0830.1,5.00,0.00,29.4,28.3,00.0,38.0,31.4,22.3,0000.0,0025.06,0007.18,0005.44
2022-08-31 21:17:00,,0830.1,4.98,0.00,29.5,28.3,00.0,38.0,31.4,22.4,0000.0,0025.02,0007.12,0005.40
2022-08-31 21:18:00,,0830.1,5.00,0.00,29.5,27.3,00.0,38.0,31.4,22.7,0000.0,0023.80,0007.05,0005.38
2022-08-31 21:19:00,,0830.1,4.99,0.00,29.4,26.6,00.0,38.0,31.2,22.9,0000.0,0023.05,0007.00,0005.34
2022-08-31 21:20:00,,0830.1,5.00,0.00,29.4,26.7,00.0,38.0,31.2,22.2,0000.0,0022.15,0006.95,0005.30
2022-08-31 21:21:00,,0830.1,5.01,0.00,29.3,27.0,00.0,38.0,31.0,21.4,0000.0,0022.18,0006.88,0005.25
2022-08-31 21:22:00,,0830.1,4.99,0.00,29.3,27.3,00.0,37.9,31.1,20.8,0000.0,0022.10,0006.80,0005.19
2022-08-31 21:23:00,,0830.1,5.01,0.00,29.3,27.6,00.0,37.9,31.2,20.6,0000.0,0022.27,0006.76,0005.13
2022-08-31 21:24:00,,0830.1,5.00,0.00,29.4,27.9,00.0,38.0,31.3,19.5,0000.0,0022.45,0006.62,0005.07
2022-08-31 21:25:00,,0830.1,4.99,0.00,29.4,28.2,00.0,38.0,31.3,20.0,0000.0,0022.25,0006.41,0005.00
2022-08-31 21:26:00,,0830.1,5.00,0.00,29.5,28.4,00.0,38.0,31.4,19.8,0000.0,0020.48,0006.17,0004.92
2022-08-31 21:27:00,,0830.1,5.00,0.00,29.5,27.9,00.0,38.0,31.4,19.8,0000.0,0019.58,0006.02,0004.88
2022-08-31 21:28:00,,0830.0,5.00,0.00,29.5,26.8,00.0,38.0,31.2,20.7,0000.0,0019.44,0005.89,0004.83
2022-08-31 21:29:00,,0830.0,5.00,0.00,29.4,26.6,00.0,38.0,31.2,21.7,0000.0,0020.86,0005.86,0004.79
2022-08-31 21:30:00,,0830.0,5.00,0.00,29.4,26.9,00.0,38.0,31.2,20.8,0000.0,0021.96,0005.77,0004.75
2022-08-31 21:31:00,,0830.0,5.00,0.00,29.3,27.2,00.0,37.9,31.1,21.0,0000.0,0020.79,0005.69,0004.71
2022-08-31 21:32:00,,0830.0,5.01,0.00,29.3,27.5,00.0,37.9,31.1,19.2,0000.0,0019.80,0005.62,0004.68
2022-08-31 21:33:00,,0830.0,5.00,0.00,29.4,27.8,00.0,37.9,31.2,18.6,0000.0,0018.81,0005.53,0004.64
2022-08-31 21:34:00,,0830.0,4.98,0.00,29.4,28.1,00.0,38.0,31.3,17.4,0000.0,0017.74,0005.44,0004.59
2022-08-31 21:35:00,,0830.0,5.00,0.00,29.4,28.2,00.0,38.0,31.4,17.6,0000.0,0016.52,0005.39,0004.54
2022-08-31 21:36:00,,0830.0,4.99,0.00,29.5,27.3,00.0,38.0,31.3,18.4,0000.0,0015.88,0005.43,0004.51
2022-08-31 21:37:00,,0830.0,5.01,0.00,29.4,26.5,00.0,38.0,31.2,18.6,0000.0,0015.86,0005.44,0004.49
2022-08-31 21:38:00,,0829.9,4.99,0.00,29.4,26.7,00.0,37.9,31.2,18.8,0000.0,0015.50,0005.45,0004.46
2022-08-31 21:39:00,,0830.0,5.01,0.00,29.3,27.0,00.0,37.9,31.1,18.8,0000.0,0015.08,0005.47,0004.45
2022-08-31 21:40:00,,0829.9,5.01,0.00,29.3,27.4,00.0,37.9,31.1,18.2,0000.0,0013.75,0005.41,0004.41
2022-08-31 21:41:00,,0830.0,5.01,0.00,29.3,27.7,00.0,37.9,31.2,18.8,0000.0,0012.91,0005.37,0004.38
2022-08-31 21:42:00,,0829.9,4.99,0.00,29.4,27.9,00.0,37.9,31.2,19.7,0000.0,0013.52,0005.31,0004.35
2022-08-31 21:43:00,,0829.9,5.01,0.00,29.4,28.2,00.0,37.9,31.3,20.8,0000.0,0013.94,0005.38,0004.35
2022-08-31 21:44:00,,0829.9,5.01,0.00,29.4,28.4,00.0,38.0,31.4,22.3,0000.0,0017.43,0005.95,0004.47
2022-08-31 21:45:00,,0829.9,4.98,0.00,29.5,28.5,00.0,38.0,31.5,22.1,0000.0,0018.01,0006.12,0004.57
2022-08-31 21:46:00,,0829.9,5.00,0.00,29.5,27.8,00.0,38.0,31.4,21.6,0000.0,0019.10,0006.30,0004.71
2022-08-31 21:47:00,,0829.9,5.00,0.00,29.5,26.9,00.0,38.0,31.3,21.3,0000.0,0019.66,0006.40,0004.80
2022-08-31 21:48:00,,0829.9,5.00,0.00,29.5,26.9,00.0,38.0,31.3,21.9,0000.0,0019.59,0006.53,0004.90
2022-08-31 21:49:00,,0829.9,5.01,0.00,29.4,27.2,00.0,38.0,31.2,22.4,0000.0,0020.12,0006.60,0004.97
2022-08-31 21:50:00,,0830.0,5.00,0.00,29.4,27.5,00.0,38.0,31.2,22.1,0000.0,0020.41,0006.68,0005.05
2022-08-31 21:51:00,,0829.9,5.01,0.00,29.4,27.8,00.0,38.0,31.2,21.4,0000.0,0020.43,0006.74,0005.12
2022-08-31 21:52:00,,0829.9,5.00,0.00,29.4,28.0,00.0,38.0,31.3,21.5,0000.0,0019.86,0006.87,0005.19
2022-08-31 21:53:00,,0829.9,4.98,0.00,29.5,28.3,00.0,38.0,31.4,21.7,0000.0,0020.62,0006.98,0005.26
2022-08-31 21:54:00,,0830.0,5.00,0.00,29.5,28.1,00.0,38.0,31.4,21.5,0000.0,0020.82,0006.99,0005.33
2022-08-31 21:55:00,,0830.0,5.01,0.00,29.5,27.0,00.0,38.0,31.3,21.2,0000.0,0017.91,0006.52,0005.30
2022-08-31 21:56:00,,0829.9,5.00,0.00,29.5,26.5,00.0,38.0,31.3,21.2,0000.0,0017.98,0006.45,0005.27
2022-08-31 21:57:00,,0830.0,5.01,0.00,29.4,26.8,00.0,38.0,31.2,21.3,0000.0,0018.01,0006.46,0005.21
2022-08-31 21:58:00,,0830.0,4.99,0.00,29.4,27.1,00.0,38.0,31.1,20.5,0000.0,0018.24,0006.39,0005.15
2022-08-31 21:59:00,,0830.1,5.01,0.00,29.4,27.5,00.0,38.0,31.1,20.4,0000.0,0018.73,0006.29,0005.10
